Stations météo

réclame
Mon MeteoGroup
Trapani/Birgi, Italie (16429): Température de l'air & dewpoint: 17.04.2018 04:00:00 - 23.04.2018 04:00:00 (CEST)Trapani/Birgi, Italie (16429): Vitesse du vent: 17.04.2018 04:00:00 - 23.04.2018 04:00:00 (CEST)Trapani/Birgi, Italie (16429): Direction du vent: 17.04.2018 04:00:00 - 23.04.2018 04:00:00 (CEST)Trapani/Birgi, Italie (16429): reduced air pressure: 17.04.2018 04:00:00 - 23.04.2018 04:00:00 (CEST)Trapani/Birgi, Italie (16429): visibility: 17.04.2018 04:00:00 - 23.04.2018 04:00:00 (CEST)Trapani/Birgi, Italie (16429): Ensoleillement: 17.04.2018 04:00:00 - 23.04.2018 04:00:00 (CEST)
Date & Time tt [°C] td [°C] ff [km/h] ff [knt] dd ppp [hPa] vv [km] sd [min]
23.04.2018 04:00:00 - - - - - - - -
23.04.2018 03:00:00 13,2 11,2 8 4 ESE 1019,9 15 -
23.04.2018 02:00:00 12,0 10,1 8 4 SE 1019,8 15 -
23.04.2018 01:00:00 13,0 11,1 5 3 SE 1020,2 15 -
23.04.2018 00:00:00 14,2 12,2 8 4 E 1020,2 15 -
22.04.2018 23:00:00 15,0 13,2 5 3 S 1020,2 15 -
22.04.2018 22:00:00 15,0 13,4 9 5 S 1020,2 15 -
22.04.2018 21:00:00 17,0 15,5 4 2 NE 1019,2 12 0
22.04.2018 20:00:00 17,4 16,8 5 3 NNW 1019,0 12 54
22.04.2018 19:00:00 20,0 18,3 8 4 NW 1019,0 12 60
22.04.2018 18:00:00 21,2 17,6 15 8 WNW 1018,8 12 60
22.04.2018 17:00:00 21,0 17,0 4 2 WNW 1019,2 12 24
22.04.2018 16:00:00 20,2 18,0 9 5 WNW 1019,2 12 60
22.04.2018 15:00:00 20,0 18,0 9 5 WNW 1019,3 12 60
22.04.2018 14:00:00 19,6 18,1 15 8 WSW 1019,4 12 60
22.04.2018 13:00:00 20,0 18,1 16 9 WSW 1019,6 12 60
22.04.2018 12:00:00 20,0 18,1 13 7 W 1019,6 15 60
22.04.2018 11:00:00 20,0 16,7 9 5 NW 1019,4 15 60
22.04.2018 10:00:00 18,0 15,3 8 4 SSW 1019,3 15 60
22.04.2018 09:00:00 16,0 13,3 5 3 S 1019,1 15 60
22.04.2018 08:00:00 12,8 10,4 8 4 ESE 1019,0 15 12
22.04.2018 07:00:00 11,0 8,7 5 3 ESE 1018,8 14 -
22.04.2018 06:00:00 11,4 9,0 9 5 SE 1019,1 14 -
22.04.2018 05:00:00 11,4 11,4 8 4 ESE 1019,2 12 -
22.04.2018 04:00:00 11,8 9,5 5 3 SE 1019,1 12 -
22.04.2018 03:00:00 12,0 9,7 5 3 SE 1019,5 12 -
22.04.2018 02:00:00 12,0 9,6 4 2 SE 1019,6 12 -
22.04.2018 01:00:00 12,2 9,8 2 1 ENE 1019,5 12 -
22.04.2018 00:00:00 13,2 10,7 2 1 SE 1019,7 12 -
21.04.2018 23:00:00 14,4 12,4 5 3 ESE 1019,5 12 -
21.04.2018 22:00:00 15,4 13,2 4 2 NNW 1019,2 12 -
21.04.2018 21:00:00 11,6 9,9 8 4 NNW 1019,0 12 -
21.04.2018 20:00:00 12,2 11,1 9 5 NNW 1018,7 12 0
21.04.2018 19:00:00 18,0 16,3 11 6 NNW 1018,9 12 42
21.04.2018 18:00:00 18,0 16,3 13 7 NNW 1019,0 12 0
21.04.2018 17:00:00 18,0 15,6 15 8 NNW 1019,3 12 24
21.04.2018 16:00:00 18,4 16,7 16 9 NNW 1019,4 10 60
21.04.2018 15:00:00 18,8 16,8 15 8 NNW 1020,0 10 60
21.04.2018 14:00:00 19,0 17,1 18 10 NNW 1020,0 10 60
21.04.2018 13:00:00 18,2 15,5 16 9 NNW 1020,1 10 60
21.04.2018 12:00:00 18,0 16,2 15 8 NNW 1020,6 10 60
21.04.2018 11:00:00 17,2 15,0 8 4 NNW 1020,3 10 60
21.04.2018 10:00:00 17,0 14,5 9 5 NNW 1020,1 10 0
21.04.2018 09:00:00 16,0 13,3 11 6 N 1019,9 8 0
21.04.2018 08:00:00 15,0 12,3 5 3 NNW 1019,5 8 0
21.04.2018 07:00:00 15,0 12,5 2 1 N 1019,2 6 -
21.04.2018 06:00:00 14,0 11,5 4 2 NNE 1019,1 7 -
21.04.2018 05:00:00 13,2 10,9 8 4 N 1019,1 6 -
21.04.2018 04:00:00 12,0 9,5 4 2 N 1019,3 8 -
21.04.2018 03:00:00 12,0 9,5 4 2 NNE 1019,3 7 -
21.04.2018 02:00:00 12,8 10,5 4 2 N 1019,5 7 -
21.04.2018 01:00:00 14,8 12,3 5 3 N 1019,4 12 -
21.04.2018 00:00:00 15,0 12,5 5 3 N 1019,8 12 -
20.04.2018 23:00:00 15,8 13,5 5 3 NNW 1019,8 12 -
20.04.2018 22:00:00 15,8 13,5 8 4 N 1019,8 12 -
20.04.2018 21:00:00 16,0 14,0 8 4 NNW 1019,4 12 -
20.04.2018 20:00:00 17,0 15,7 13 7 NNW 1019,3 15 -
20.04.2018 19:00:00 18,0 17,2 11 6 NNW 1019,8 20 60
20.04.2018 18:00:00 19,0 17,3 15 8 NNW 1019,6 22 60
20.04.2018 17:00:00 19,0 17,1 15 8 NNW 1019,9 22 60
20.04.2018 16:00:00 19,2 17,5 16 9 NNW 1020,3 22 60
20.04.2018 15:00:00 19,4 14,9 16 9 NNW 1020,8 22 60
20.04.2018 14:00:00 19,2 17,0 15 8 NW 1021,2 20 60
20.04.2018 13:00:00 18,6 16,2 13 7 NW 1021,4 20 60
20.04.2018 12:00:00 18,2 16,5 13 7 NNW 1021,5 20 60
20.04.2018 11:00:00 18,0 15,8 11 6 NW 1021,1 20 60
20.04.2018 10:00:00 17,8 14,7 8 4 NW 1021,1 18 60
20.04.2018 09:00:00 15,8 13,3 2 1 NNW 1020,7 16 36
20.04.2018 08:00:00 12,8 10,4 8 4 ESE 1020,4 16 0
20.04.2018 07:00:00 11,2 9,0 9 5 ESE 1020,3 15 -
20.04.2018 06:00:00 11,8 9,9 4 2 ENE 1020,6 15 -
20.04.2018 05:00:00 11,6 9,5 5 3 ESE 1021,2 15 -
20.04.2018 04:00:00 12,0 10,1 4 2 SE 1021,2 15 -
20.04.2018 03:00:00 12,0 10,2 5 3 SE 1022,0 15 -
20.04.2018 02:00:00 12,8 11,0 5 3 SE 1022,1 15 -
20.04.2018 01:00:00 13,6 12,0 2 1 NNE 1022,1 15 -
20.04.2018 00:00:00 14,0 12,4 4 2 ENE 1022,1 15 -
19.04.2018 23:00:00 15,0 13,4 4 2 E 1022,1 15 -
19.04.2018 22:00:00 15,8 14,2 4 2 ENE 1022,0 15 -
19.04.2018 21:00:00 16,6 15,0 4 2 N 1021,7 15 -
19.04.2018 20:00:00 17,0 15,4 8 4 SE 1021,5 15 0
19.04.2018 19:00:00 17,0 16,2 4 2 SW 1021,4 18 -
19.04.2018 18:00:00 17,0 16,0 15 8 NNW 1021,6 20 30
19.04.2018 17:00:00 17,8 16,1 16 9 NW 1021,8 25 0
19.04.2018 16:00:00 18,0 15,6 13 7 NW 1021,8 25 30
19.04.2018 15:00:00 18,0 16,3 8 4 NNW 1022,2 25 0
19.04.2018 14:00:00 19,0 17,3 16 9 NNW 1022,5 25 12
19.04.2018 13:00:00 20,2 14,1 15 8 NNW 1022,4 25 60
19.04.2018 12:00:00 20,2 14,5 13 7 NW 1022,6 25 60
19.04.2018 11:00:00 20,0 14,4 9 5 NW 1022,6 25 30
19.04.2018 10:00:00 18,6 14,1 5 3 NNE 1022,3 25 60
19.04.2018 09:00:00 16,0 13,3 9 5 N 1022,4 25 30
19.04.2018 08:00:00 14,0 11,7 4 2 N 1022,5 20 0
19.04.2018 07:00:00 13,2 10,9 0 0 N 1022,6 16 -
19.04.2018 06:00:00 13,2 10,9 4 2 N 1022,7 12 -
19.04.2018 05:00:00 13,4 11,6 5 3 E 1022,7 12 -
19.04.2018 04:00:00 13,8 11,9 4 2 ENE 1023,1 12 -
19.04.2018 03:00:00 14,4 12,4 4 2 ENE 1023,8 12 -
19.04.2018 02:00:00 14,4 11,2 4 2 ENE 1023,8 12 -
19.04.2018 01:00:00 14,4 12,4 0 0 N 1024,0 12 -
19.04.2018 00:00:00 14,4 12,8 4 2 N 1024,0 12 -
18.04.2018 23:00:00 14,2 12,2 0 0 N 1023,4 12 -
18.04.2018 22:00:00 15,0 13,5 5 3 SE 1023,3 12 -
18.04.2018 21:00:00 15,2 14,1 4 2 N 1022,4 12 -
18.04.2018 20:00:00 16,4 15,1 2 1 N 1022,1 16 0
18.04.2018 19:00:00 17,2 15,9 9 5 ESE 1022,0 15 0
18.04.2018 18:00:00 17,2 15,2 16 9 E 1022,4 15 12
18.04.2018 17:00:00 19,0 14,7 4 2 N 1022,3 15 6
18.04.2018 16:00:00 19,0 15,9 11 6 NNW 1022,1 15 60
18.04.2018 15:00:00 18,8 15,7 11 6 WNW 1022,0 15 60
18.04.2018 14:00:00 18,2 14,9 13 7 NNW 1021,9 15 60
18.04.2018 13:00:00 18,0 15,4 13 7 NW 1022,2 15 60
18.04.2018 12:00:00 17,6 15,2 15 8 NW 1022,1 15 60
18.04.2018 11:00:00 18,2 14,9 15 8 NW 1021,9 15 18
18.04.2018 10:00:00 17,0 14,3 4 2 N 1021,3 15 48
18.04.2018 09:00:00 15,4 12,9 11 6 N 1021,1 15 6
18.04.2018 08:00:00 15,0 12,5 8 4 NNE 1021,0 12 0
18.04.2018 07:00:00 13,4 10,8 5 3 N 1020,6 10 0
18.04.2018 06:00:00 13,6 11,0 9 5 NNW 1019,8 10 0
18.04.2018 05:00:00 13,8 11,1 9 5 NNW 1020,3 10 -
18.04.2018 04:00:00 14,0 11,4 15 8 NNW 1020,4 10 -
18.04.2018 03:00:00 14,0 11,4 15 8 NNW 1020,5 12 -
18.04.2018 02:00:00 14,6 12,1 11 6 NNW 1020,6 12 -
18.04.2018 01:00:00 15,2 12,7 13 7 NNW 1020,7 12 -
18.04.2018 00:00:00 15,2 13,2 15 8 N 1020,7 12 -
17.04.2018 23:00:00 16,0 14,2 9 5 N 1020,9 12 -
17.04.2018 22:00:00 15,2 12,7 5 3 N 1020,6 12 -
17.04.2018 21:00:00 15,4 13,2 8 4 N 1020,1 12 -
17.04.2018 20:00:00 16,2 14,7 9 5 WNW 1019,6 12 24
17.04.2018 19:00:00 17,6 15,8 8 4 NNW 1019,7 12 42
17.04.2018 18:00:00 17,6 15,9 13 7 WNW 1019,6 12 30
17.04.2018 17:00:00 18,0 16,3 22 12 WNW 1019,7 12 24
17.04.2018 16:00:00 18,4 16,5 15 8 WNW 1020,4 12 24
17.04.2018 15:00:00 18,4 16,5 15 8 NW 1020,4 12 54
17.04.2018 14:00:00 18,6 16,4 16 9 WNW 1020,4 12 60
17.04.2018 13:00:00 18,2 16,0 13 7 WNW 1020,9 12 48
17.04.2018 12:00:00 18,0 15,6 18 10 WNW 1021,1 12 18
17.04.2018 11:00:00 17,2 14,7 13 7 WNW 1021,1 10 18
17.04.2018 10:00:00 16,2 13,5 13 7 WNW 1020,2 10 18
17.04.2018 09:00:00 15,2 12,5 9 5 WNW 1020,1 10 0
17.04.2018 08:00:00 13,2 10,7 0 0 N 1019,3 10 0
17.04.2018 07:00:00 12,2 10,3 5 3 ESE 1018,4 10 -
17.04.2018 06:00:00 12,8 10,5 8 4 SE 1018,1 12 -
17.04.2018 05:00:00 12,6 10,0 4 2 SE 1018,2 12 -
17.04.2018 04:00:00 12,0 9,5 8 4 SSE 1018,2 12 -

tt = Température de l'air
td = dewpoint
ff = Vitesse du vent
dd = Direction du vent
ppp = reduced air pressure
vv = visibility
sd = Ensoleillement

stations d'obs. à proximité